[[{"header":{"parameterUnit":"m.s-1","parameterCategory":1,"la1":30.2991,"la2":30.254,"lo1":-89.0895,"lo2":-89.0444,"dy":0.0017,"dx":0.0017,"nx":28,"ny":28,"refTime":"2025-04-07T03:00:00:Z","depth":0,"parameterNumber":2,"parameterNumberName":"U-component_of_WINDS"},"data":[0,0,0,0,0,0,0,0,0,0,0,0,0,0,0,0,0,0,0,0,0,0,0,0,0,0,0,0,0,0,0,0,0,0,0,0,0,0,0,0,0,0,0,0,0,0,0,0,0,0,0,0,0,0,0,0,0,0,3.8615,3.8616,0,3.8706,3.8707,3.8708,3.8705,3.8704,3.8703,3.8702,3.8794,3.8798,3.8801,0,0,0,0,0,0,0,0,0,0,0,0,0,3.844,3.8443,3.8615,3.8616,3.8617,3.8706,3.8707,3.8708,3.8706,3.8704,3.8702,3.8701,3.8793,3.8797,3.8802,0,0,0,0,0,0,0,0,0,0,0,0,0,3.8522,3.8444,3.8615,3.8627,3.8629,3.8705,3.8707,3.8708,3.8706,3.8704,3.8702,3.87,3.8791,3.8797,3.8802,3.8873,0,0,3.8819,3.8821,0,0,0,0,0,0,0,0,3.8517,3.8528,3.8624,3.8626,3.8628,3.8692,3.8679,3.8764,3.8706,3.8676,3.8702,3.8699,3.8762,3.8769,3.8791,3.8877,3.8881,3.8819,3.8823,3.8825,3.8826,0,0,0,0,0,0,0,3.8512,3.8525,3.8651,3.8625,3.8628,3.8628,3.8637,3.8695,3.8728,3.8679,3.8679,3.869,3.8763,3.8785,3.8793,3.8883,3.8819,3.8824,3.8827,3.8829,3.9034,3.9037,0,0,0,0,0,0,3.8503,3.852,3.8648,3.8654,3.8567,3.8632,3.8643,3.8674,3.8728,3.8734,3.8691,3.8689,3.8777,3.8786,3.8796,3.8884,3.8825,3.883,3.8833,3.9032,3.9035,3.9037,0,0,0,0,0,0,3.85,3.8515,3.8644,3.8587,3.8603,3.8637,3.8672,3.8676,3.8699,3.8737,3.8743,3.8708,3.8776,3.8788,3.8854,3.8887,3.8832,3.8837,3.903,3.9033,3.9036,3.9059,0,0,0,0,0,0,3.8495,3.8514,3.854,3.8587,3.8606,3.8701,3.8674,3.868,3.8709,3.8707,3.8755,3.8761,3.8775,3.8846,3.886,3.8893,3.8842,3.9027,3.9031,3.9035,3.9056,3.9063,3.9069,0,0,0,0,0,3.8488,3.8543,3.8542,3.8557,3.8641,3.8703,3.8714,3.8729,3.8711,3.8739,3.8764,3.8759,3.8881,3.8853,3.8868,3.8904,3.9025,3.903,3.9035,3.9053,3.9062,3.9069,0,0,0,0,0,0,3.8498,3.8549,3.8549,3.862,3.8657,3.8702,3.8737,3.8738,3.8781,3.8777,3.8795,3.8806,3.8872,3.8895,3.8863,3.8977,3.8951,3.8959,3.8959,3.8968,3.8975,3.8968,3.8846,0,0,0,0,0,3.8509,3.8555,3.8597,3.8656,3.8674,3.8703,3.873,3.874,3.8779,3.8794,3.8824,3.8862,3.891,3.894,3.8985,3.9059,3.907,3.9092,3.9098,3.9103,3.911,3.9153,3.9163,3.9053,3.9053,3.9053,0,0,3.8531,3.8564,3.8592,3.8658,3.8688,3.8736,3.8716,3.8767,3.8803,3.8802,3.8867,3.889,3.8934,3.9005,3.9037,3.9026,3.9143,3.911,3.9114,3.9118,3.9159,3.9169,3.9178,3.9057,3.9056,3.9056,0,0,3.8595,3.8625,3.8678,3.8709,3.8755,3.8774,3.8786,3.8832,3.8848,3.8913,3.8914,3.8957,3.9038,3.907,3.9096,3.9175,3.9174,3.919,3.9225,3.9266,3.9274,3.9282,3.9311,3.9322,3.9196,3.9197,3.9197,0,3.8616,3.8688,3.8705,3.8757,3.8787,3.8789,3.8843,3.8873,3.8931,3.8952,3.8938,3.904,3.907,3.9149,3.9168,3.919,3.9206,3.9184,3.9272,3.928,3.9287,3.9315,3.9326,3.9198,3.9198,3.9198,3.9198,0,3.8713,3.8763,3.8801,3.8858,3.8892,3.8945,3.897,3.9002,3.9009,3.903,3.9097,3.9133,3.9187,3.9206,3.9213,3.9287,3.9278,3.9268,3.9242,3.9299,3.9326,3.9337,3.9201,3.92,3.92,3.9199,0,0,3.8785,3.8852,3.8866,3.8892,3.8944,3.8984,3.9037,3.909,3.9118,3.9159,3.9205,3.9274,3.9266,3.9296,3.9306,3.9343,3.9405,3.9328,3.933,3.9342,3.949,3.9498,3.951,3.9404,3.9406,3.9408,3.9487,0,3.8856,3.8951,3.8968,3.9051,3.9099,3.9103,3.915,3.9187,3.9208,3.9252,3.9275,3.9324,3.9309,3.9327,3.9363,3.9389,3.9435,3.9384,3.9448,3.945,3.9437,3.9524,3.9532,3.9604,3.9497,3.9499,3.95,0,3.895,3.8994,3.9083,3.913,3.915,3.9192,3.9243,3.9285,3.9328,3.9341,3.9376,3.9383,3.944,3.9412,3.9491,3.9456,3.9483,3.95,3.9504,3.951,3.9478,3.9533,3.9628,3.9639,3.9517,3.9515,3.9514,0,3.8995,3.9076,3.914,3.9163,3.9219,3.9249,3.9274,3.9315,3.9347,3.9391,3.9412,3.9462,3.949,3.953,3.955,3.9528,3.9629,3.9602,3.9642,3.9641,3.9662,3.9661,3.9763,3.9679,3.9679,3.9679,3.9679,0,3.9072,3.9126,3.9161,3.92,3.9262,3.9282,3.9342,3.9366,3.9403,3.9448,3.9454,3.9496,3.9521,3.9567,3.9583,3.9647,3.9659,3.9672,3.9676,3.9672,3.967,3.969,3.9685,3.9682,3.9681,3.9681,3.968,0,3.9132,3.9158,3.9228,3.9276,3.929,3.9333,3.9374,3.9413,3.9435,3.9492,3.9506,3.954,3.9595,3.962,3.9686,3.9698,3.9771,3.9771,3.9756,3.9758,3.9796,3.9792,3.9915,3.9932,3.9836,3.9837,3.9838,0,3.918,3.9222,3.9275,3.9306,3.9332,3.9381,3.9413,3.9435,3.9468,3.9522,3.9554,3.9609,3.9654,3.9741,3.9772,3.9824,3.9825,3.9865,3.9833,3.9828,3.9827,3.9824,3.9829,3.987,3.9871,3.9872,3.9873,0,3.9262,3.9273,3.9319,3.9371,3.941,3.9452,3.9492,3.9517,3.9545,3.9583,3.9639,3.9674,3.9743,3.9798,3.9852,3.9878,3.9881,3.9883,3.9895,3.9891,3.9881,3.9888,3.9772,3.988,3.9879,3.9878,3.9878,3.9878,3.9318,3.9356,3.94,3.9452,3.9485,3.9524,3.9563,3.959,3.9637,3.9696,3.9706,3.9766,3.981,3.9883,3.9911,3.9959,3.995,3.9967,3.9971,3.9975,3.9978,3.9874,3.9969,3.9969,3.9968,3.9968,3.9968,0,3.9401,3.943,3.9478,3.9535,3.9577,3.9576,3.9622,3.9656,3.9709,3.975,3.9794,3.986,3.9913,3.9949,4.0004,4.0035,4.0038,4.0049,4.0047,4.0053,3.9982,3.9967,4.0046,4.0046,4.0046,4.0046,4.0046,4.0046,3.9449,3.9514,3.9531,3.9612,3.9641,3.97,3.9726,3.9763,3.9795,3.9868,3.9913,3.9936,3.9976,4.0033,4.0083,4.0092,4.0112,4.0124,4.0133,4.0066,4.0058,4.005,4.0036,4.0128,4.0128,4.02,4.02,4.0201]},{"header":{"parameterUnit":"m.s-1","parameterCategory":1,"la1":30.2991,"la2":30.254,"lo1":-89.0895,"lo2":-89.0444,"dy":0.0017,"dx":0.0017,"nx":28,"ny":28,"refTime":"2025-04-07T03:00:00:Z","depth":0,"parameterNumber":3,"parameterNumberName":"V-component_of_WINDS"},"data":[0,0,0,0,0,0,0,0,0,0,0,0,0,0,0,0,0,0,0,0,0,0,0,0,0,0,0,0,0,0,0,0,0,0,0,0,0,0,0,0,0,0,0,0,0,0,0,0,0,0,0,0,0,0,0,0,0,0,-5.4332,-5.4332,0,-5.433,-5.433,-5.433,-5.4288,-5.4287,-5.4286,-5.4285,-5.4282,-5.4283,-5.4283,0,0,0,0,0,0,0,0,0,0,0,0,0,-5.4301,-5.4302,-5.4332,-5.4332,-5.4332,-5.433,-5.433,-5.433,-5.4288,-5.4287,-5.4286,-5.4285,-5.4281,-5.4282,-5.4283,0,0,0,0,0,0,0,0,0,0,0,0,0,-5.4308,-5.4302,-5.4332,-5.4311,-5.4309,-5.433,-5.433,-5.433,-5.4289,-5.4287,-5.4285,-5.4284,-5.4281,-5.4282,-5.4284,-5.4324,0,0,-5.4288,-5.4288,0,0,0,0,0,0,0,0,-5.4308,-5.4309,-5.4314,-5.4313,-5.4311,-5.4308,-5.4318,-5.4328,-5.4289,-5.4296,-5.4285,-5.4283,-5.4292,-5.4292,-5.4295,-5.4324,-5.4324,-5.4288,-5.4289,-5.4289,-5.429,0,0,0,0,0,0,0,-5.4307,-5.4309,-5.4331,-5.4315,-5.4312,-5.4302,-5.4301,-5.4319,-5.4303,-5.4296,-5.4293,-5.4293,-5.429,-5.4294,-5.4295,-5.4323,-5.4288,-5.4289,-5.429,-5.429,-5.4386,-5.4388,0,0,0,0,0,0,-5.431,-5.4309,-5.4331,-5.4331,-5.4305,-5.4304,-5.4303,-5.431,-5.4303,-5.43,-5.4294,-5.4291,-5.4292,-5.4293,-5.4294,-5.4341,-5.4289,-5.4291,-5.4291,-5.4385,-5.4387,-5.4389,0,0,0,0,0,0,-5.4309,-5.4312,-5.4331,-5.4319,-5.4321,-5.4306,-5.4315,-5.4311,-5.4314,-5.4302,-5.4298,-5.4301,-5.4291,-5.4292,-5.4317,-5.434,-5.4291,-5.4292,-5.4383,-5.4385,-5.4388,-5.4435,0,0,0,0,0,0,-5.4309,-5.4312,-5.4327,-5.432,-5.4322,-5.4354,-5.4316,-5.4312,-5.4317,-5.4313,-5.4307,-5.4304,-5.429,-5.4315,-5.4318,-5.4341,-5.4293,-5.438,-5.4384,-5.4387,-5.4431,-5.4439,-5.4446,0,0,0,0,0,-5.4308,-5.434,-5.4328,-5.4331,-5.434,-5.4356,-5.4357,-5.4339,-5.4319,-5.4334,-5.4326,-5.4305,-5.4338,-5.4318,-5.4321,-5.4345,-5.4379,-5.4383,-5.4387,-5.4428,-5.4438,-5.4445,0,0,0,0,0,0,-5.4349,-5.4339,-5.4325,-5.4356,-5.4357,-5.4349,-5.4367,-5.435,-5.4356,-5.4352,-5.433,-5.4329,-5.4357,-5.4354,-5.4332,-5.4384,-5.4355,-5.4359,-5.4385,-5.4394,-5.4401,-5.4401,-5.4295,0,0,0,0,0,-5.4362,-5.4376,-5.4366,-5.4394,-5.4396,-5.4382,-5.4388,-5.4375,-5.4374,-5.4374,-5.4368,-5.4369,-5.4379,-5.4387,-5.4396,-5.4431,-5.443,-5.4449,-5.4457,-5.4462,-5.4466,-5.4486,-5.4494,-5.4401,-5.4401,-5.4401,0,0,-5.4389,-5.4385,-5.4394,-5.4403,-5.4402,-5.4417,-5.4382,-5.4399,-5.4409,-5.4377,-5.44,-5.4396,-5.4395,-5.4426,-5.4439,-5.4424,-5.4492,-5.4467,-5.4472,-5.4473,-5.4491,-5.4499,-5.4507,-5.4404,-5.4404,-5.4403,0,0,-5.4444,-5.4443,-5.4467,-5.4467,-5.4467,-5.4458,-5.4464,-5.4458,-5.4454,-5.4477,-5.4454,-5.4466,-5.4485,-5.4486,-5.4488,-5.4547,-5.4528,-5.4551,-5.4588,-5.4607,-5.4614,-5.462,-5.4641,-5.4649,-5.4555,-5.4555,-5.4556,0,-5.4477,-5.4498,-5.4481,-5.45,-5.4504,-5.4477,-5.4501,-5.4503,-5.4505,-5.4509,-5.4492,-5.4516,-5.4514,-5.4544,-5.4559,-5.4562,-5.4569,-5.4551,-5.4614,-5.4621,-5.4626,-5.4646,-5.4654,-5.4558,-5.4558,-5.4558,-5.4557,0,-5.4539,-5.4554,-5.4574,-5.4578,-5.4585,-5.4606,-5.4592,-5.4602,-5.4589,-5.4582,-5.4606,-5.4603,-5.4611,-5.4618,-5.4605,-5.4647,-5.4638,-5.4618,-5.4588,-5.4638,-5.4656,-5.4664,-5.4562,-5.4561,-5.456,-5.456,0,0,-5.4618,-5.4614,-5.4622,-5.4624,-5.4623,-5.4634,-5.4655,-5.4664,-5.4673,-5.4676,-5.4693,-5.4711,-5.4693,-5.4696,-5.4684,-5.4701,-5.4748,-5.4679,-5.4679,-5.4691,-5.4794,-5.4808,-5.4817,-5.4736,-5.4737,-5.4738,-5.4794,0,-5.4671,-5.4707,-5.4693,-5.4729,-5.4744,-5.4719,-5.4738,-5.4739,-5.4734,-5.4745,-5.4739,-5.4752,-5.4727,-5.4729,-5.4745,-5.4739,-5.4768,-5.4735,-5.4751,-5.4751,-5.475,-5.4827,-5.4841,-5.4894,-5.4801,-5.4802,-5.4803,0,-5.4738,-5.4745,-5.4784,-5.4782,-5.4787,-5.4804,-5.4811,-5.4823,-5.4825,-5.4819,-5.4825,-5.4809,-5.4829,-5.4801,-5.4829,-5.4806,-5.4812,-5.4811,-5.4812,-5.4812,-5.4779,-5.4828,-5.4911,-5.4918,-5.4814,-5.4813,-5.4813,0,-5.4791,-5.4811,-5.4837,-5.484,-5.4838,-5.485,-5.485,-5.485,-5.4857,-5.4864,-5.4869,-5.4878,-5.4883,-5.489,-5.4878,-5.4858,-5.4908,-5.4878,-5.4904,-5.4904,-5.4914,-5.4913,-5.4998,-5.492,-5.492,-5.4919,-5.4919,0,-5.4852,-5.4876,-5.4861,-5.4877,-5.4904,-5.4888,-5.4915,-5.4912,-5.4913,-5.4928,-5.4908,-5.4922,-5.4905,-5.4918,-5.4908,-5.4933,-5.4936,-5.4932,-5.4929,-5.4933,-5.4934,-5.4936,-5.4931,-5.4922,-5.4921,-5.4921,-5.492,0,-5.4915,-5.4906,-5.4933,-5.493,-5.493,-5.495,-5.4947,-5.4962,-5.4956,-5.4975,-5.4979,-5.4969,-5.4983,-5.4972,-5.4985,-5.4979,-5.5012,-5.5004,-5.5011,-5.5009,-5.5035,-5.5033,-5.5124,-5.5135,-5.505,-5.5051,-5.5052,0,-5.4954,-5.4972,-5.4972,-5.4981,-5.4983,-5.4997,-5.5005,-5.4991,-5.4999,-5.5004,-5.5018,-5.5031,-5.504,-5.5064,-5.5058,-5.5069,-5.506,-5.5092,-5.5062,-5.5066,-5.506,-5.5059,-5.5061,-5.5097,-5.5098,-5.5099,-5.51,0,-5.5023,-5.5018,-5.503,-5.5041,-5.5051,-5.5058,-5.5064,-5.5073,-5.5059,-5.507,-5.5084,-5.5092,-5.5107,-5.512,-5.5129,-5.5128,-5.5112,-5.511,-5.5116,-5.512,-5.5123,-5.5122,-5.5027,-5.5107,-5.5106,-5.5106,-5.5105,-5.5105,-5.5075,-5.5091,-5.5094,-5.5108,-5.5111,-5.5118,-5.5132,-5.5128,-5.5141,-5.5152,-5.5144,-5.5161,-5.5164,-5.5175,-5.5177,-5.519,-5.5177,-5.5187,-5.5189,-5.5191,-5.5195,-5.5123,-5.5192,-5.5192,-5.5191,-5.5191,-5.5191,0,-5.5143,-5.5144,-5.5158,-5.5167,-5.5179,-5.5164,-5.517,-5.5181,-5.5197,-5.5201,-5.5212,-5.5229,-5.5242,-5.5238,-5.525,-5.5262,-5.5255,-5.5265,-5.5263,-5.5264,-5.5206,-5.5199,-5.5271,-5.5271,-5.5271,-5.5271,-5.5271,-5.5271,-5.5179,-5.5205,-5.5202,-5.5229,-5.523,-5.5249,-5.5254,-5.526,-5.5263,-5.5284,-5.5295,-5.5293,-5.5294,-5.5306,-5.5318,-5.5316,-5.5321,-5.5334,-5.533,-5.5276,-5.5268,-5.526,-5.5253,-5.5336,-5.5336,-5.5386,-5.5387,-5.5387]}]]